Time,TemperatureF,DewpointF,PressureIn,WindDirection,WindDirectionDegrees,WindSpeedMPH,WindSpeedGustMPH,Humidity,HourlyPrecipIn,Conditions,Clouds,dailyrainin,SoftwareType,DateUTC
2013-10-01 00:01:00,70.7,56.2,30.03,North,0,0.0,0.0,60,0.00,,---,0.00,VWS V14.01,2013-10-01 04:01:00,
2013-10-01 00:06:00,70.7,55.2,30.03,North,0,0.0,0.0,58,0.00,,---,0.00,VWS V14.01,2013-10-01 04:06:00,
2013-10-01 00:11:00,70.7,55.2,30.03,North,0,0.0,0.0,58,0.00,,---,0.00,VWS V14.01,2013-10-01 04:11:00,
2013-10-01 00:16:00,70.7,55.2,30.03,North,0,0.0,0.0,58,0.00,,---,0.00,VWS V14.01,2013-10-01 04:16:00,
2013-10-01 00:21:00,70.7,55.2,30.03,East,97,0.0,0.0,58,0.00,,---,0.00,VWS V14.01,2013-10-01 04:21:00,
2013-10-01 00:26:00,70.7,55.2,30.03,East,96,0.0,0.0,58,0.00,,---,0.00,VWS V14.01,2013-10-01 04:26:00,
2013-10-01 00:31:00,70.9,55.8,30.03,North,353,0.0,0.0,59,0.00,,---,0.00,VWS V14.01,2013-10-01 04:31:00,
2013-10-01 00:36:00,70.9,55.8,30.00,North,353,0.0,0.0,59,0.00,,---,0.00,VWS V14.01,2013-10-01 04:36:00,
2013-10-01 00:41:00,71.1,56.0,30.00,NW,313,0.0,0.0,59,0.00,,---,0.00,VWS V14.01,2013-10-01 04:41:00,
2013-10-01 00:46:00,71.1,55.5,30.00,NW,313,0.0,0.0,58,0.00,,---,0.00,VWS V14.01,2013-10-01 04:46:00,
2013-10-01 00:51:00,71.1,55.5,30.00,NW,313,0.0,0.0,58,0.00,,---,0.00,VWS V14.01,2013-10-01 04:51:00,
2013-10-01 00:56:00,71.1,55.5,30.00,NW,313,0.0,0.0,58,0.00,,---,0.00,VWS V14.01,2013-10-01 04:56:00,
2013-10-01 01:01:00,71.1,55.5,30.03,NW,324,0.0,0.0,58,0.00,,---,0.00,VWS V14.01,2013-10-01 05:01:00,
2013-10-01 01:07:00,70.9,55.4,30.03,East,100,0.0,0.0,58,0.00,,---,0.00,VWS V14.01,2013-10-01 05:07:00,
2013-10-01 01:12:00,70.9,55.4,30.03,East,100,0.0,0.0,58,0.00,,---,0.00,VWS V14.01,2013-10-01 05:12:00,
2013-10-01 01:17:00,70.9,55.4,30.03,North,353,0.0,0.0,58,0.00,,---,0.00,VWS V14.01,2013-10-01 05:17:00,
2013-10-01 01:22:00,70.9,55.4,30.03,North,353,0.0,0.0,58,0.00,,---,0.00,VWS V14.01,2013-10-01 05:22:00,
2013-10-01 01:27:00,70.9,55.4,30.03,North,353,0.0,0.0,58,0.00,,---,0.00,VWS V14.01,2013-10-01 05:27:00,
2013-10-01 01:32:00,70.7,55.2,30.00,North,353,0.0,0.0,58,0.00,,---,0.00,VWS V14.01,2013-10-01 05:32:00,
2013-10-01 01:37:00,70.7,55.2,30.00,North,353,0.0,0.0,58,0.00,,---,0.00,VWS V14.01,2013-10-01 05:37:00,
2013-10-01 01:42:00,70.7,55.2,30.00,North,353,0.0,0.0,58,0.00,,---,0.00,VWS V14.01,2013-10-01 05:42:00,
2013-10-01 01:47:00,70.5,55.0,30.00,North,353,0.0,0.0,58,0.00,,---,0.00,VWS V14.01,2013-10-01 05:47:00,
2013-10-01 01:52:00,70.5,55.0,30.03,North,353,0.0,0.0,58,0.00,,---,0.00,VWS V14.01,2013-10-01 05:52:00,
2013-10-01 01:57:00,70.5,55.5,30.03,North,353,0.0,0.0,59,0.00,,---,0.00,VWS V14.01,2013-10-01 05:57:00,
2013-10-01 02:02:00,70.3,55.3,30.00,North,353,0.0,0.0,59,0.00,,---,0.00,VWS V14.01,2013-10-01 06:02:00,
2013-10-01 02:07:00,70.3,55.3,30.00,North,353,0.0,0.0,59,0.00,,---,0.00,VWS V14.01,2013-10-01 06:07:00,
2013-10-01 02:12:00,70.3,55.3,30.00,North,3,0.0,0.0,59,0.00,,---,0.00,VWS V14.01,2013-10-01 06:12:00,
2013-10-01 02:17:00,70.3,55.3,30.00,North,3,0.0,0.0,59,0.00,,---,0.00,VWS V14.01,2013-10-01 06:17:00,
2013-10-01 02:22:00,70.3,55.3,30.00,North,3,0.0,0.0,59,0.00,,---,0.00,VWS V14.01,2013-10-01 06:22:00,
2013-10-01 02:27:00,70.3,55.3,30.00,North,3,0.0,0.0,59,0.00,,---,0.00,VWS V14.01,2013-10-01 06:27:00,
2013-10-01 02:32:00,70.3,55.3,30.00,North,3,0.0,0.0,59,0.00,,---,0.00,VWS V14.01,2013-10-01 06:32:00,
2013-10-01 02:37:00,70.3,55.3,30.00,North,3,0.0,0.0,59,0.00,,---,0.00,VWS V14.01,2013-10-01 06:37:00,
2013-10-01 02:42:00,70.3,55.3,30.00,North,3,0.0,0.0,59,0.00,,---,0.00,VWS V14.01,2013-10-01 06:42:00,
2013-10-01 02:47:00,70.3,55.3,30.00,North,3,0.0,0.0,59,0.00,,---,0.00,VWS V14.01,2013-10-01 06:47:00,
2013-10-01 02:52:00,70.3,55.3,30.00,North,3,0.0,0.0,59,0.00,,---,0.00,VWS V14.01,2013-10-01 06:52:00,
2013-10-01 02:57:00,70.3,55.3,30.00,North,3,0.0,0.0,59,0.00,,---,0.00,VWS V14.01,2013-10-01 06:57:00,
2013-10-01 03:02:00,70.3,55.3,30.00,North,3,0.0,0.0,59,0.00,,---,0.00,VWS V14.01,2013-10-01 07:02:00,
2013-10-01 03:07:00,70.2,55.2,30.00,North,3,0.0,0.0,59,0.00,,---,0.00,VWS V14.01,2013-10-01 07:07:00,
2013-10-01 03:12:00,70.2,55.2,30.00,NE,45,0.0,0.0,59,0.00,,---,0.00,VWS V14.01,2013-10-01 07:12:00,
2013-10-01 03:17:00,70.2,55.6,30.00,NE,45,0.0,0.0,60,0.00,,---,0.00,VWS V14.01,2013-10-01 07:17:00,
2013-10-01 03:22:00,70.2,55.6,30.00,NE,45,0.0,0.0,60,0.00,,---,0.00,VWS V14.01,2013-10-01 07:22:00,
2013-10-01 03:27:00,70.0,55.5,30.00,NE,45,0.0,0.0,60,0.00,,---,0.00,VWS V14.01,2013-10-01 07:27:00,
2013-10-01 03:32:00,70.0,55.5,30.00,NE,45,0.0,0.0,60,0.00,,---,0.00,VWS V14.01,2013-10-01 07:32:00,
2013-10-01 03:37:00,69.8,55.3,30.00,NE,45,0.0,0.0,60,0.00,,---,0.00,VWS V14.01,2013-10-01 07:37:00,
2013-10-01 03:42:00,69.8,55.3,30.00,NE,45,0.0,0.0,60,0.00,,---,0.00,VWS V14.01,2013-10-01 07:42:00,
2013-10-01 03:47:00,69.8,55.3,30.00,NE,45,0.0,0.0,60,0.00,,---,0.00,VWS V14.01,2013-10-01 07:47:00,
2013-10-01 03:52:00,69.8,55.3,30.00,North,0,0.0,0.0,60,0.00,,---,0.00,VWS V14.01,2013-10-01 07:52:00,
2013-10-01 03:57:00,69.8,55.3,30.00,North,0,0.0,0.0,60,0.00,,---,0.00,VWS V14.01,2013-10-01 07:57:00,
2013-10-01 04:03:00,70.0,55.5,30.00,North,0,0.0,0.0,60,0.00,,---,0.00,VWS V14.01,2013-10-01 08:03:00,
2013-10-01 04:08:00,70.0,55.9,30.00,North,0,0.0,0.0,61,0.00,,---,0.00,VWS V14.01,2013-10-01 08:08:00,
2013-10-01 04:13:00,70.0,55.9,30.00,North,0,0.0,0.0,61,0.00,,---,0.00,VWS V14.01,2013-10-01 08:13:00,
2013-10-01 04:18:00,70.0,55.9,30.00,North,0,0.0,0.0,61,0.00,,---,0.00,VWS V14.01,2013-10-01 08:18:00,
2013-10-01 04:23:00,70.2,56.1,30.00,North,0,0.0,0.0,61,0.00,,---,0.00,VWS V14.01,2013-10-01 08:23:00,
2013-10-01 04:28:00,70.2,56.1,30.00,North,0,0.0,0.0,61,0.00,,---,0.00,VWS V14.01,2013-10-01 08:28:00,
2013-10-01 04:33:00,70.2,56.1,30.00,North,0,0.0,0.0,61,0.00,,---,0.00,VWS V14.01,2013-10-01 08:33:00,
2013-10-01 04:38:00,70.2,56.5,30.00,North,0,0.0,0.0,62,0.00,,---,0.00,VWS V14.01,2013-10-01 08:38:00,
2013-10-01 04:43:00,70.2,56.5,30.00,North,0,0.0,0.0,62,0.00,,---,0.00,VWS V14.01,2013-10-01 08:43:00,
2013-10-01 04:48:00,70.2,56.5,30.00,North,0,0.0,0.0,62,0.00,,---,0.00,VWS V14.01,2013-10-01 08:48:00,
2013-10-01 04:53:00,70.0,56.4,30.00,North,0,0.0,0.0,62,0.00,,---,0.00,VWS V14.01,2013-10-01 08:53:00,
2013-10-01 04:58:00,70.0,56.4,30.00,North,0,0.0,0.0,62,0.00,,---,0.00,VWS V14.01,2013-10-01 08:58:00,
2013-10-01 05:03:00,70.0,56.8,30.00,NNE,16,0.0,0.0,63,0.00,,---,0.00,VWS V14.01,2013-10-01 09:03:00,
2013-10-01 05:08:00,70.0,56.4,30.00,North,3,0.0,0.0,62,0.00,,---,0.00,VWS V14.01,2013-10-01 09:08:00,
2013-10-01 05:13:00,70.0,56.4,30.00,ENE,73,0.0,0.0,62,0.00,,---,0.00,VWS V14.01,2013-10-01 09:13:00,
2013-10-01 05:18:00,70.0,56.4,30.00,North,0,2.7,2.7,62,0.00,,---,0.00,VWS V14.01,2013-10-01 09:18:00,
2013-10-01 05:23:00,70.0,56.4,30.00,NW,324,0.0,0.0,62,0.00,,---,0.00,VWS V14.01,2013-10-01 09:23:00,
2013-10-01 05:28:00,70.0,56.8,30.00,NNE,24,0.0,0.0,63,0.00,,---,0.00,VWS V14.01,2013-10-01 09:28:00,
2013-10-01 05:33:00,70.0,56.8,30.00,NNE,24,0.0,0.0,63,0.00,,---,0.00,VWS V14.01,2013-10-01 09:33:00,
2013-10-01 05:39:00,70.0,56.4,30.00,NNE,16,0.0,0.0,62,0.00,,---,0.00,VWS V14.01,2013-10-01 09:39:00,
2013-10-01 05:44:00,69.8,56.7,30.00,SSW,197,0.0,0.0,63,0.00,,---,0.00,VWS V14.01,2013-10-01 09:44:00,
2013-10-01 05:49:00,69.8,56.7,30.00,NNE,29,0.0,0.0,63,0.00,,---,0.00,VWS V14.01,2013-10-01 09:49:00,
2013-10-01 05:54:00,69.8,56.7,30.00,NNE,29,0.0,0.0,63,0.00,,---,0.00,VWS V14.01,2013-10-01 09:54:00,
2013-10-01 05:59:00,69.8,56.7,30.00,ENE,63,0.0,0.0,63,0.00,,---,0.00,VWS V14.01,2013-10-01 09:59:00,
2013-10-01 06:04:00,69.8,56.7,30.00,ENE,63,0.0,0.0,63,0.00,,---,0.00,VWS V14.01,2013-10-01 10:04:00,
2013-10-01 06:09:00,69.8,56.7,30.00,ENE,63,0.0,0.0,63,0.00,,---,0.00,VWS V14.01,2013-10-01 10:09:00,
2013-10-01 06:14:00,69.8,56.7,30.00,NW,314,0.0,0.0,63,0.00,,---,0.00,VWS V14.01,2013-10-01 10:14:00,
2013-10-01 06:19:00,69.8,56.7,30.00,NW,314,0.0,0.0,63,0.00,,---,0.00,VWS V14.01,2013-10-01 10:19:00,
2013-10-01 06:24:00,69.6,56.9,30.00,NW,314,0.0,0.0,64,0.00,,---,0.00,VWS V14.01,2013-10-01 10:24:00,
2013-10-01 06:29:00,69.6,56.9,30.00,NW,314,0.0,0.0,64,0.00,,---,0.00,VWS V14.01,2013-10-01 10:29:00,
2013-10-01 06:34:00,69.6,56.9,30.00,NNE,24,0.0,0.0,64,0.00,,---,0.00,VWS V14.01,2013-10-01 10:34:00,
2013-10-01 06:40:00,69.6,56.9,30.00,ENE,58,0.0,0.0,64,0.00,,---,0.00,VWS V14.01,2013-10-01 10:40:00,
2013-10-01 06:45:00,69.6,56.9,30.00,West,271,0.0,0.0,64,0.00,,---,0.00,VWS V14.01,2013-10-01 10:45:00,
2013-10-01 06:50:00,69.6,56.9,30.00,ENE,61,0.0,0.0,64,0.00,,---,0.00,VWS V14.01,2013-10-01 10:50:00,
2013-10-01 06:55:00,69.6,56.9,30.00,ENE,61,0.0,0.0,64,0.00,,---,0.00,VWS V14.01,2013-10-01 10:55:00,
2013-10-01 07:00:00,69.6,56.9,30.00,ENE,61,0.0,0.0,64,0.00,,---,0.00,VWS V14.01,2013-10-01 11:00:00,
2013-10-01 07:05:00,69.6,56.9,30.03,ENE,61,0.0,0.0,64,0.00,,---,0.00,VWS V14.01,2013-10-01 11:05:00,
2013-10-01 07:10:00,69.6,56.9,30.03,ENE,61,0.0,0.0,64,0.00,,---,0.00,VWS V14.01,2013-10-01 11:10:00,
2013-10-01 07:15:00,69.6,56.9,30.03,ENE,61,0.0,0.0,64,0.00,,---,0.00,VWS V14.01,2013-10-01 11:15:00,
2013-10-01 07:20:00,69.6,56.9,30.03,ENE,61,0.0,0.0,64,0.00,,---,0.00,VWS V14.01,2013-10-01 11:20:00,
2013-10-01 07:25:00,69.6,56.9,30.03,ENE,61,0.0,0.0,64,0.00,,---,0.00,VWS V14.01,2013-10-01 11:25:00,
2013-10-01 07:30:00,69.6,56.9,30.03,ENE,62,0.0,0.0,64,0.00,,---,0.00,VWS V14.01,2013-10-01 11:30:00,
2013-10-01 07:35:00,69.6,56.9,30.03,ENE,62,0.0,0.0,64,0.00,,---,0.00,VWS V14.01,2013-10-01 11:35:00,
2013-10-01 07:40:00,69.6,57.3,30.03,ENE,62,0.0,0.0,65,0.00,,---,0.00,VWS V14.01,2013-10-01 11:40:00,
2013-10-01 07:45:00,69.6,57.3,30.03,ENE,62,0.0,0.0,65,0.00,,---,0.00,VWS V14.01,2013-10-01 11:45:00,
2013-10-01 07:50:00,69.6,57.3,30.03,ENE,62,0.0,0.0,65,0.00,,---,0.00,VWS V14.01,2013-10-01 11:50:00,
2013-10-01 07:55:00,69.8,57.1,30.03,North,7,0.0,0.0,64,0.00,,---,0.00,VWS V14.01,2013-10-01 11:55:00,
2013-10-01 08:00:00,69.8,57.1,30.03,North,7,0.0,0.0,64,0.00,,---,0.00,VWS V14.01,2013-10-01 12:00:00,
2013-10-01 08:05:00,69.8,57.1,30.03,North,7,0.0,0.0,64,0.00,,---,0.00,VWS V14.01,2013-10-01 12:05:00,
2013-10-01 08:10:00,69.8,57.1,30.03,North,7,0.0,0.0,64,0.00,,---,0.00,VWS V14.01,2013-10-01 12:10:00,
2013-10-01 08:15:00,69.8,57.1,30.03,North,7,0.0,0.0,64,0.00,,---,0.00,VWS V14.01,2013-10-01 12:15:00,
2013-10-01 08:20:00,70.0,57.3,30.03,North,3,0.0,0.0,64,0.00,,---,0.00,VWS V14.01,2013-10-01 12:20:00,
2013-10-01 08:26:00,70.0,57.3,30.03,WNW,289,0.0,0.0,64,0.00,,---,0.00,VWS V14.01,2013-10-01 12:26:00,
2013-10-01 08:31:00,70.0,57.7,30.03,WNW,289,0.0,0.0,65,0.00,,---,0.00,VWS V14.01,2013-10-01 12:31:00,
2013-10-01 08:36:00,70.2,57.9,30.03,WNW,289,0.0,0.0,65,0.00,,---,0.00,VWS V14.01,2013-10-01 12:36:00,
2013-10-01 08:41:00,70.3,58.0,30.03,WNW,289,0.0,0.0,65,0.00,,---,0.00,VWS V14.01,2013-10-01 12:41:00,
2013-10-01 08:46:00,70.5,58.2,30.03,North,353,0.0,0.0,65,0.00,,---,0.00,VWS V14.01,2013-10-01 12:46:00,
2013-10-01 08:51:00,70.7,58.4,30.03,North,5,0.0,0.0,65,0.00,,---,0.00,VWS V14.01,2013-10-01 12:51:00,
2013-10-01 08:56:00,70.9,58.5,30.03,NNE,21,0.0,0.0,65,0.00,,---,0.00,VWS V14.01,2013-10-01 12:56:00,
2013-10-01 09:01:00,71.1,58.7,30.03,ENE,67,0.0,0.0,65,0.00,,---,0.00,VWS V14.01,2013-10-01 13:01:00,
2013-10-01 09:06:00,71.2,58.9,30.06,ENE,58,0.0,0.0,65,0.00,,---,0.00,VWS V14.01,2013-10-01 13:06:00,
2013-10-01 09:11:00,71.2,58.9,30.06,NE,45,0.0,0.0,65,0.00,,---,0.00,VWS V14.01,2013-10-01 13:11:00,
2013-10-01 09:16:00,71.4,59.0,30.06,NNE,13,0.0,0.0,65,0.00,,---,0.00,VWS V14.01,2013-10-01 13:16:00,
2013-10-01 09:21:00,71.6,58.8,30.06,ENE,76,0.0,0.0,64,0.00,,---,0.00,VWS V14.01,2013-10-01 13:21:00,
2013-10-01 09:26:00,71.8,59.0,30.06,NNW,340,0.0,0.0,64,0.00,,---,0.00,VWS V14.01,2013-10-01 13:26:00,
2013-10-01 09:31:00,72.0,59.1,30.06,North,0,0.0,2.7,64,0.00,,---,0.00,VWS V14.01,2013-10-01 13:31:00,
2013-10-01 09:36:00,72.0,59.1,30.06,NNE,17,0.0,0.0,64,0.00,,---,0.00,VWS V14.01,2013-10-01 13:36:00,
2013-10-01 09:41:00,72.5,59.6,30.06,North,10,3.1,4.0,64,0.00,,---,0.00,VWS V14.01,2013-10-01 13:41:00,
2013-10-01 09:46:00,73.2,60.3,30.06,North,0,3.6,3.6,64,0.00,,---,0.00,VWS V14.01,2013-10-01 13:46:00,
2013-10-01 09:51:00,73.9,59.7,30.06,NNW,343,4.0,4.0,61,0.00,,---,0.00,VWS V14.01,2013-10-01 13:51:00,
2013-10-01 09:56:00,74.5,60.6,30.06,NE,51,2.7,2.7,62,0.00,,---,0.00,VWS V14.01,2013-10-01 13:56:00,
2013-10-01 10:01:00,74.8,60.5,30.06,West,276,3.1,3.6,61,0.00,,---,0.00,VWS V14.01,2013-10-01 14:01:00,
2013-10-01 10:06:00,74.8,59.1,30.06,North,0,0.0,0.0,58,0.00,,---,0.00,VWS V14.01,2013-10-01 14:06:00,
2013-10-01 10:11:00,74.7,58.9,30.06,NNW,345,3.6,3.6,58,0.00,,---,0.00,VWS V14.01,2013-10-01 14:11:00,
2013-10-01 10:16:00,74.8,60.0,30.06,WNW,293,2.7,2.7,60,0.00,,---,0.00,VWS V14.01,2013-10-01 14:16:00,
2013-10-01 10:21:00,75.4,59.6,30.06,North,0,0.0,2.2,58,0.00,,---,0.00,VWS V14.01,2013-10-01 14:21:00,
2013-10-01 10:26:00,75.7,59.4,30.06,NE,45,3.1,3.1,57,0.00,,---,0.00,VWS V14.01,2013-10-01 14:26:00,
2013-10-01 10:31:00,76.1,60.3,30.06,North,4,2.7,2.7,58,0.00,,---,0.00,VWS V14.01,2013-10-01 14:31:00,
2013-10-01 10:36:00,76.5,60.1,30.06,East,95,0.0,0.0,57,0.00,,---,0.00,VWS V14.01,2013-10-01 14:36:00,
2013-10-01 10:41:00,76.8,58.9,30.06,NE,43,0.0,0.0,54,0.00,,---,0.00,VWS V14.01,2013-10-01 14:41:00,
2013-10-01 10:46:00,77.0,57.5,30.06,NNW,345,2.7,4.0,51,0.00,,---,0.00,VWS V14.01,2013-10-01 14:46:00,
2013-10-01 10:51:00,77.0,59.1,30.06,East,79,2.7,3.1,54,0.00,,---,0.00,VWS V14.01,2013-10-01 14:51:00,
2013-10-01 10:57:00,77.2,58.2,30.06,WNW,297,3.1,3.1,52,0.00,,---,0.00,VWS V14.01,2013-10-01 14:57:00,
2013-10-01 11:02:00,77.7,59.8,30.06,ENE,61,2.2,2.7,54,0.00,,---,0.00,VWS V14.01,2013-10-01 15:02:00,
2013-10-01 11:07:00,77.9,58.9,30.06,NNE,24,0.0,4.0,52,0.00,,---,0.00,VWS V14.01,2013-10-01 15:07:00,
2013-10-01 11:12:00,77.5,58.5,30.06,NNE,16,0.0,0.0,52,0.00,,---,0.00,VWS V14.01,2013-10-01 15:12:00,
2013-10-01 11:17:00,77.4,58.9,30.06,NNW,330,2.7,4.9,53,0.00,,---,0.00,VWS V14.01,2013-10-01 15:17:00,
2013-10-01 11:22:00,77.5,58.5,30.06,NNE,13,5.4,6.3,52,0.00,,---,0.00,VWS V14.01,2013-10-01 15:22:00,
2013-10-01 11:27:00,78.3,59.7,30.06,ENE,61,3.6,3.6,53,0.00,,---,0.00,VWS V14.01,2013-10-01 15:27:00,
2013-10-01 11:32:00,78.6,58.4,30.06,NNW,345,3.6,3.6,50,0.00,,---,0.00,VWS V14.01,2013-10-01 15:32:00,
2013-10-01 11:37:00,79.0,58.2,30.06,East,81,3.6,4.0,49,0.00,,---,0.00,VWS V14.01,2013-10-01 15:37:00,
2013-10-01 11:42:00,79.2,57.2,30.06,NNE,24,3.6,5.4,47,0.00,,---,0.00,VWS V14.01,2013-10-01 15:42:00,
2013-10-01 11:47:00,79.9,60.2,30.06,South,180,0.0,0.0,51,0.00,,---,0.00,VWS V14.01,2013-10-01 15:47:00,
2013-10-01 11:52:00,80.2,59.4,30.06,SW,218,2.2,4.0,49,0.00,,---,0.00,VWS V14.01,2013-10-01 15:52:00,
2013-10-01 11:57:00,80.6,60.3,30.06,NE,50,7.6,7.6,50,0.00,,---,0.00,VWS V14.01,2013-10-01 15:57:00,
2013-10-01 12:02:00,80.6,59.7,30.06,ENE,63,2.2,2.7,49,0.00,,---,0.00,VWS V14.01,2013-10-01 16:02:00,
2013-10-01 12:07:00,80.8,58.7,30.06,ESE,116,2.2,2.2,47,0.00,,---,0.00,VWS V14.01,2013-10-01 16:07:00,
2013-10-01 12:12:00,80.8,58.1,30.06,NE,42,2.7,3.6,46,0.00,,---,0.00,VWS V14.01,2013-10-01 16:12:00,
2013-10-01 12:17:00,80.8,58.7,30.06,ENE,70,2.2,3.6,47,0.00,,---,0.00,VWS V14.01,2013-10-01 16:17:00,
2013-10-01 12:22:00,80.6,58.5,30.06,North,0,3.6,3.6,47,0.00,,---,0.00,VWS V14.01,2013-10-01 16:22:00,
2013-10-01 12:27:00,80.4,58.4,30.06,North,350,2.2,3.6,47,0.00,,---,0.00,VWS V14.01,2013-10-01 16:27:00,
2013-10-01 12:31:00,80.4,57.8,30.06,North,5,3.1,4.9,46,0.00,,---,0.00,VWS V14.01,2013-10-01 16:31:00,
2013-10-01 12:36:00,80.2,58.2,30.06,ENE,58,2.7,2.7,47,0.00,,---,0.00,VWS V14.01,2013-10-01 16:36:00,
2013-10-01 12:41:00,80.4,58.4,30.06,NNE,20,0.0,0.0,47,0.00,,---,0.00,VWS V14.01,2013-10-01 16:41:00,
2013-10-01 12:46:00,80.6,59.1,30.06,East,95,3.1,4.0,48,0.00,,---,0.00,VWS V14.01,2013-10-01 16:46:00,
2013-10-01 12:51:00,80.8,58.1,30.06,ENE,76,2.2,3.1,46,0.00,,---,0.00,VWS V14.01,2013-10-01 16:51:00,
2013-10-01 12:56:00,80.8,58.7,30.06,North,353,0.0,4.0,47,0.00,,---,0.00,VWS V14.01,2013-10-01 16:56:00,
2013-10-01 13:01:00,80.6,58.5,30.06,NE,49,0.0,0.0,47,0.00,,---,0.00,VWS V14.01,2013-10-01 17:01:00,
2013-10-01 13:06:00,80.8,58.7,30.06,ENE,61,3.1,3.1,47,0.00,,---,0.00,VWS V14.01,2013-10-01 17:06:00,
2013-10-01 13:11:00,81.1,59.6,30.06,East,93,2.7,2.7,48,0.00,,---,0.00,VWS V14.01,2013-10-01 17:11:00,
2013-10-01 13:16:00,81.5,56.9,30.06,NNE,29,5.8,5.8,43,0.00,,---,0.00,VWS V14.01,2013-10-01 17:16:00,
2013-10-01 13:21:00,81.9,58.5,30.06,ENE,58,2.7,4.0,45,0.00,,---,0.00,VWS V14.01,2013-10-01 17:21:00,
2013-10-01 13:26:00,81.9,57.8,30.06,ENE,70,3.1,3.1,44,0.00,,---,0.00,VWS V14.01,2013-10-01 17:26:00,
2013-10-01 13:31:00,81.3,56.7,30.03,NNW,329,0.0,0.0,43,0.00,,---,0.00,VWS V14.01,2013-10-01 17:31:00,
2013-10-01 13:36:00,81.3,58.0,30.03,NNW,339,0.0,3.1,45,0.00,,---,0.00,VWS V14.01,2013-10-01 17:36:00,
2013-10-01 13:41:00,82.0,58.0,30.03,WNW,297,0.0,0.0,44,0.00,,---,0.00,VWS V14.01,2013-10-01 17:41:00,
2013-10-01 13:46:00,82.6,58.5,30.03,ESE,120,2.2,2.7,44,0.00,,---,0.00,VWS V14.01,2013-10-01 17:46:00,
2013-10-01 13:51:00,82.6,57.8,30.03,ENE,71,0.0,2.7,43,0.00,,---,0.00,VWS V14.01,2013-10-01 17:51:00,
2013-10-01 13:57:00,82.2,58.2,30.03,North,6,3.6,3.6,44,0.00,,---,0.00,VWS V14.01,2013-10-01 17:57:00,
2013-10-01 14:02:00,82.4,58.3,30.03,SSW,213,2.7,2.7,44,0.00,,---,0.00,VWS V14.01,2013-10-01 18:02:00,
2013-10-01 14:07:00,82.0,57.4,30.03,East,81,2.7,3.6,43,0.00,,---,0.00,VWS V14.01,2013-10-01 18:07:00,
2013-10-01 14:12:00,81.7,57.0,30.03,ENE,67,0.0,0.0,43,0.00,,---,0.00,VWS V14.01,2013-10-01 18:12:00,
2013-10-01 14:17:00,81.7,57.0,30.03,NNE,29,4.0,4.0,43,0.00,,---,0.00,VWS V14.01,2013-10-01 18:17:00,
2013-10-01 14:22:00,82.2,58.2,30.03,ESE,102,0.0,0.0,44,0.00,,---,0.00,VWS V14.01,2013-10-01 18:22:00,
2013-10-01 14:27:00,82.4,57.0,30.03,NNE,17,0.0,0.0,42,0.00,,---,0.00,VWS V14.01,2013-10-01 18:27:00,
2013-10-01 14:32:00,82.4,57.0,30.03,ENE,70,2.7,3.1,42,0.00,,---,0.00,VWS V14.01,2013-10-01 18:32:00,
2013-10-01 14:37:00,82.2,57.5,30.03,ENE,64,2.7,3.6,43,0.00,,---,0.00,VWS V14.01,2013-10-01 18:37:00,
2013-10-01 14:42:00,82.0,57.4,30.03,NE,34,2.2,2.7,43,0.00,,---,0.00,VWS V14.01,2013-10-01 18:42:00,
2013-10-01 14:47:00,81.7,56.4,30.03,East,79,3.1,4.9,42,0.00,,---,0.00,VWS V14.01,2013-10-01 18:47:00,
2013-10-01 14:52:00,81.5,56.9,30.03,ENE,73,2.7,3.6,43,0.00,,---,0.00,VWS V14.01,2013-10-01 18:52:00,
2013-10-01 14:57:00,81.1,55.9,30.03,NE,55,0.0,0.0,42,0.00,,---,0.00,VWS V14.01,2013-10-01 18:57:00,
2013-10-01 15:02:00,81.0,56.4,30.03,North,1,3.6,3.6,43,0.00,,---,0.00,VWS V14.01,2013-10-01 19:02:00,
2013-10-01 15:07:00,81.0,56.4,30.03,NNE,14,2.2,2.7,43,0.00,,---,0.00,VWS V14.01,2013-10-01 19:07:00,
2013-10-01 15:12:00,81.5,57.5,30.03,NNE,30,4.9,4.9,44,0.00,,---,0.00,VWS V14.01,2013-10-01 19:12:00,
2013-10-01 15:17:00,81.9,57.2,30.03,NE,35,0.0,3.6,43,0.00,,---,0.00,VWS V14.01,2013-10-01 19:17:00,
2013-10-01 15:22:00,82.2,57.5,30.03,NW,316,0.0,4.0,43,0.00,,---,0.00,VWS V14.01,2013-10-01 19:22:00,
2013-10-01 15:27:00,82.8,56.7,30.03,ENE,57,5.4,5.4,41,0.00,,---,0.00,VWS V14.01,2013-10-01 19:27:00,
2013-10-01 15:32:00,83.1,57.0,30.03,NE,42,0.0,3.1,41,0.00,,---,0.00,VWS V14.01,2013-10-01 19:32:00,
2013-10-01 15:37:00,82.9,56.8,30.03,ENE,58,0.0,3.6,41,0.00,,---,0.00,VWS V14.01,2013-10-01 19:37:00,
2013-10-01 15:42:00,82.4,56.4,30.03,ENE,67,2.7,3.6,41,0.00,,---,0.00,VWS V14.01,2013-10-01 19:42:00,
2013-10-01 15:47:00,82.2,56.9,30.03,NNW,340,3.6,3.6,42,0.00,,---,0.00,VWS V14.01,2013-10-01 19:47:00,
2013-10-01 15:52:00,82.4,56.4,30.03,North,4,2.2,6.3,41,0.00,,---,0.00,VWS V14.01,2013-10-01 19:52:00,
2013-10-01 15:57:00,82.6,56.5,30.03,NE,51,3.6,4.0,41,0.00,,---,0.00,VWS V14.01,2013-10-01 19:57:00,
2013-10-01 16:02:00,82.6,56.5,30.03,ENE,57,3.6,3.6,41,0.00,,---,0.00,VWS V14.01,2013-10-01 20:02:00,
2013-10-01 16:07:00,82.0,56.0,30.03,NE,55,0.0,0.0,41,0.00,,---,0.00,VWS V14.01,2013-10-01 20:07:00,
2013-10-01 16:12:00,81.7,55.7,30.03,North,7,3.1,3.1,41,0.00,,---,0.00,VWS V14.01,2013-10-01 20:12:00,
2013-10-01 16:17:00,81.9,55.9,30.03,NE,44,3.1,3.1,41,0.00,,---,0.00,VWS V14.01,2013-10-01 20:17:00,
2013-10-01 16:22:00,81.9,55.9,30.03,NE,49,0.0,0.0,41,0.00,,---,0.00,VWS V14.01,2013-10-01 20:22:00,
2013-10-01 16:27:00,82.0,56.0,30.03,ENE,58,4.9,4.9,41,0.00,,---,0.00,VWS V14.01,2013-10-01 20:27:00,
2013-10-01 16:32:00,82.0,56.0,30.03,East,79,0.0,0.0,41,0.00,,---,0.00,VWS V14.01,2013-10-01 20:32:00,
2013-10-01 16:37:00,81.9,55.9,30.03,SSE,154,3.6,3.6,41,0.00,,---,0.00,VWS V14.01,2013-10-01 20:37:00,
2013-10-01 16:42:00,81.9,55.9,30.03,North,1,4.0,4.0,41,0.00,,---,0.00,VWS V14.01,2013-10-01 20:42:00,
2013-10-01 16:47:00,81.7,55.7,30.03,ENE,78,0.0,0.0,41,0.00,,---,0.00,VWS V14.01,2013-10-01 20:47:00,
2013-10-01 16:53:00,81.7,55.7,30.03,North,0,3.1,4.0,41,0.00,,---,0.00,VWS V14.01,2013-10-01 20:53:00,
2013-10-01 16:58:00,81.5,55.5,30.03,ENE,64,0.0,6.3,41,0.00,,---,0.00,VWS V14.01,2013-10-01 20:58:00,
2013-10-01 17:03:00,81.5,55.5,30.03,NE,46,2.7,4.9,41,0.00,,---,0.00,VWS V14.01,2013-10-01 21:03:00,
2013-10-01 17:08:00,81.3,55.4,30.03,NE,37,4.9,4.9,41,0.00,,---,0.00,VWS V14.01,2013-10-01 21:08:00,
2013-10-01 17:13:00,81.1,55.2,30.03,ENE,73,5.4,5.4,41,0.00,,---,0.00,VWS V14.01,2013-10-01 21:13:00,
2013-10-01 17:18:00,81.1,55.2,30.03,NNW,327,3.1,3.1,41,0.00,,---,0.00,VWS V14.01,2013-10-01 21:18:00,
2013-10-01 17:23:00,81.1,55.2,30.03,NNW,342,0.0,0.0,41,0.00,,---,0.00,VWS V14.01,2013-10-01 21:23:00,
2013-10-01 17:28:00,80.8,54.9,30.03,ENE,68,5.4,5.4,41,0.00,,---,0.00,VWS V14.01,2013-10-01 21:28:00,
2013-10-01 17:33:00,80.6,54.8,30.03,NE,47,2.7,3.1,41,0.00,,---,0.00,VWS V14.01,2013-10-01 21:33:00,
2013-10-01 17:38:00,80.4,55.2,30.03,East,81,2.7,5.8,42,0.00,,---,0.00,VWS V14.01,2013-10-01 21:38:00,
2013-10-01 17:43:00,80.2,54.4,30.03,NE,49,3.6,3.6,41,0.00,,---,0.00,VWS V14.01,2013-10-01 21:43:00,
2013-10-01 17:48:00,80.2,55.1,30.03,NNE,28,0.0,0.0,42,0.00,,---,0.00,VWS V14.01,2013-10-01 21:48:00,
2013-10-01 17:53:00,80.1,54.9,30.03,ENE,65,2.7,5.8,42,0.00,,---,0.00,VWS V14.01,2013-10-01 21:53:00,
2013-10-01 17:58:00,79.9,54.1,30.03,NE,49,4.0,4.0,41,0.00,,---,0.00,VWS V14.01,2013-10-01 21:58:00,
2013-10-01 18:03:00,79.7,54.6,30.03,NE,47,2.7,3.1,42,0.00,,---,0.00,VWS V14.01,2013-10-01 22:03:00,
2013-10-01 18:08:00,79.3,53.6,30.03,ENE,64,2.2,2.2,41,0.00,,---,0.00,VWS V14.01,2013-10-01 22:08:00,
2013-10-01 18:13:00,79.2,53.5,30.03,ESE,105,0.0,0.0,41,0.00,,---,0.00,VWS V14.01,2013-10-01 22:13:00,
2013-10-01 18:18:00,79.0,54.0,30.03,SE,126,0.0,0.0,42,0.00,,---,0.00,VWS V14.01,2013-10-01 22:18:00,
2013-10-01 18:23:00,78.6,53.6,30.03,North,0,0.0,3.1,42,0.00,,---,0.00,VWS V14.01,2013-10-01 22:23:00,
2013-10-01 18:28:00,78.4,53.5,30.03,ENE,67,3.1,3.1,42,0.00,,---,0.00,VWS V14.01,2013-10-01 22:28:00,
2013-10-01 18:33:00,78.3,53.3,30.03,ESE,119,2.7,2.7,42,0.00,,---,0.00,VWS V14.01,2013-10-01 22:33:00,
2013-10-01 18:38:00,77.9,53.0,30.03,ENE,65,0.0,2.7,42,0.00,,---,0.00,VWS V14.01,2013-10-01 22:38:00,
2013-10-01 18:43:00,77.7,52.8,30.03,East,79,0.0,0.0,42,0.00,,---,0.00,VWS V14.01,2013-10-01 22:43:00,
2013-10-01 18:48:00,77.4,52.5,30.06,SW,227,0.0,0.0,42,0.00,,---,0.00,VWS V14.01,2013-10-01 22:48:00,
2013-10-01 18:53:00,77.2,53.0,30.06,ENE,70,0.0,2.7,43,0.00,,---,0.00,VWS V14.01,2013-10-01 22:53:00,
2013-10-01 18:58:00,76.8,52.7,30.06,ENE,60,0.0,0.0,43,0.00,,---,0.00,VWS V14.01,2013-10-01 22:58:00,
2013-10-01 19:03:00,76.5,53.0,30.06,NE,42,2.7,3.1,44,0.00,,---,0.00,VWS V14.01,2013-10-01 23:03:00,
2013-10-01 19:08:00,76.1,52.0,30.06,ENE,74,0.0,2.2,43,0.00,,---,0.00,VWS V14.01,2013-10-01 23:08:00,
2013-10-01 19:13:00,75.7,51.7,30.06,NNE,33,0.0,0.0,43,0.00,,---,0.00,VWS V14.01,2013-10-01 23:13:00,
2013-10-01 19:18:00,75.4,52.0,30.06,NE,54,0.0,0.0,44,0.00,,---,0.00,VWS V14.01,2013-10-01 23:18:00,
2013-10-01 19:20:00,75.4,52.0,30.06,NE,54,0.0,0.0,44,0.00,,---,0.00,VWS V14.01,2013-10-01 23:20:00,
2013-10-01 19:25:00,75.0,51.7,30.06,NE,49,0.0,0.0,44,0.00,,---,0.00,VWS V14.01,2013-10-01 23:25:00,
2013-10-01 19:30:00,74.7,52.5,30.06,ENE,73,0.0,5.8,46,0.00,,---,0.00,VWS V14.01,2013-10-01 23:30:00,
2013-10-01 19:35:00,74.5,52.4,30.06,WNW,303,0.0,2.7,46,0.00,,---,0.00,VWS V14.01,2013-10-01 23:35:00,
2013-10-01 19:40:00,74.3,51.6,30.06,East,84,0.0,2.7,45,0.00,,---,0.00,VWS V14.01,2013-10-01 23:40:00,
2013-10-01 19:45:00,74.1,51.4,30.06,ENE,63,0.0,0.0,45,0.00,,---,0.00,VWS V14.01,2013-10-01 23:45:00,
2013-10-01 19:50:00,73.9,51.3,30.06,ENE,63,0.0,0.0,45,0.00,,---,0.00,VWS V14.01,2013-10-01 23:50:00,
2013-10-01 19:55:00,73.8,51.7,30.06,SE,135,0.0,0.0,46,0.00,,---,0.00,VWS V14.01,2013-10-01 23:55:00,
2013-10-01 20:00:00,73.4,51.4,30.06,SSE,153,0.0,0.0,46,0.00,,---,0.00,VWS V14.01,2013-10-02 00:00:00,
2013-10-01 20:05:00,73.2,51.2,30.06,NNW,328,0.0,0.0,46,0.00,,---,0.00,VWS V14.01,2013-10-02 00:05:00,
2013-10-01 20:10:00,73.0,51.6,30.06,WNW,284,0.0,0.0,47,0.00,,---,0.00,VWS V14.01,2013-10-02 00:10:00,
2013-10-01 20:15:00,72.9,51.5,30.06,WNW,285,0.0,0.0,47,0.00,,---,0.00,VWS V14.01,2013-10-02 00:15:00,
2013-10-01 20:16:00,72.7,51.9,30.06,NE,55,3.1,3.1,48,0.00,,---,0.00,VWS V14.01,2013-10-02 00:16:00,
2013-10-01 20:21:00,72.5,51.2,30.06,NE,55,0.0,0.0,47,0.00,,---,0.00,VWS V14.01,2013-10-02 00:21:00,
2013-10-01 20:26:00,72.3,51.0,30.06,NE,50,0.0,0.0,47,0.00,,---,0.00,VWS V14.01,2013-10-02 00:26:00,
2013-10-01 20:31:00,72.1,51.4,30.06,NE,54,0.0,0.0,48,0.00,,---,0.00,VWS V14.01,2013-10-02 00:31:00,
2013-10-01 20:36:00,72.0,51.2,30.06,NE,54,0.0,0.0,48,0.00,,---,0.00,VWS V14.01,2013-10-02 00:36:00,
2013-10-01 20:41:00,71.6,50.9,30.06,NE,54,0.0,0.0,48,0.00,,---,0.00,VWS V14.01,2013-10-02 00:41:00,
2013-10-01 20:46:00,71.4,50.7,30.09,NE,54,0.0,0.0,48,0.00,,---,0.00,VWS V14.01,2013-10-02 00:46:00,
2013-10-01 20:51:00,71.4,51.3,30.09,NE,54,0.0,0.0,49,0.00,,---,0.00,VWS V14.01,2013-10-02 00:51:00,
2013-10-01 20:56:00,71.1,51.0,30.09,NE,54,0.0,0.0,49,0.00,,---,0.00,VWS V14.01,2013-10-02 00:56:00,
2013-10-01 21:01:00,70.9,50.8,30.09,NE,54,0.0,0.0,49,0.00,,---,0.00,VWS V14.01,2013-10-02 01:01:00,
2013-10-01 21:07:00,70.7,50.6,30.09,NW,323,0.0,0.0,49,0.00,,---,0.00,VWS V14.01,2013-10-02 01:07:00,
2013-10-01 21:12:00,70.5,50.5,30.09,NW,323,0.0,0.0,49,0.00,,---,0.00,VWS V14.01,2013-10-02 01:12:00,
2013-10-01 21:17:00,70.3,50.8,30.09,NW,323,0.0,0.0,50,0.00,,---,0.00,VWS V14.01,2013-10-02 01:17:00,
2013-10-01 21:22:00,70.2,50.7,30.09,NW,323,0.0,0.0,50,0.00,,---,0.00,VWS V14.01,2013-10-02 01:22:00,
2013-10-01 21:27:00,70.0,50.5,30.09,NW,323,0.0,0.0,50,0.00,,---,0.00,VWS V14.01,2013-10-02 01:27:00,
2013-10-01 21:32:00,69.8,50.9,30.09,NW,323,0.0,0.0,51,0.00,,---,0.00,VWS V14.01,2013-10-02 01:32:00,
2013-10-01 21:37:00,69.4,51.1,30.09,NW,323,0.0,0.0,52,0.00,,---,0.00,VWS V14.01,2013-10-02 01:37:00,
2013-10-01 21:42:00,69.4,51.1,30.09,NW,323,0.0,0.0,52,0.00,,---,0.00,VWS V14.01,2013-10-02 01:42:00,
2013-10-01 21:47:00,69.3,50.9,30.09,NW,323,0.0,0.0,52,0.00,,---,0.00,VWS V14.01,2013-10-02 01:47:00,
2013-10-01 21:52:00,69.1,50.7,30.09,NW,323,0.0,0.0,52,0.00,,---,0.00,VWS V14.01,2013-10-02 01:52:00,
2013-10-01 21:57:00,68.9,50.6,30.09,NW,323,0.0,0.0,52,0.00,,---,0.00,VWS V14.01,2013-10-02 01:57:00,
2013-10-01 22:02:00,68.7,50.4,30.09,NW,323,0.0,0.0,52,0.00,,---,0.00,VWS V14.01,2013-10-02 02:02:00,
2013-10-01 22:07:00,68.5,50.8,30.09,NW,323,0.0,0.0,53,0.00,,---,0.00,VWS V14.01,2013-10-02 02:07:00,
2013-10-01 22:12:00,68.4,50.6,30.09,NW,323,0.0,0.0,53,0.00,,---,0.00,VWS V14.01,2013-10-02 02:12:00,
2013-10-01 22:17:00,68.2,50.4,30.09,NW,323,0.0,0.0,53,0.00,,---,0.00,VWS V14.01,2013-10-02 02:17:00,
2013-10-01 22:22:00,68.2,50.4,30.09,NW,323,0.0,0.0,53,0.00,,---,0.00,VWS V14.01,2013-10-02 02:22:00,
2013-10-01 22:27:00,68.2,50.4,30.09,NW,323,0.0,0.0,53,0.00,,---,0.00,VWS V14.01,2013-10-02 02:27:00,
2013-10-01 22:32:00,68.0,50.2,30.09,NW,323,0.0,0.0,53,0.00,,---,0.00,VWS V14.01,2013-10-02 02:32:00,
2013-10-01 22:37:00,68.0,50.2,30.09,NW,323,0.0,0.0,53,0.00,,---,0.00,VWS V14.01,2013-10-02 02:37:00,
2013-10-01 22:42:00,67.8,50.6,30.09,NW,323,0.0,0.0,54,0.00,,---,0.00,VWS V14.01,2013-10-02 02:42:00,
2013-10-01 22:47:00,67.8,50.6,30.09,NW,323,0.0,0.0,54,0.00,,---,0.00,VWS V14.01,2013-10-02 02:47:00,
2013-10-01 22:52:00,67.6,50.4,30.09,NW,323,0.0,0.0,54,0.00,,---,0.00,VWS V14.01,2013-10-02 02:52:00,
2013-10-01 22:57:00,67.6,50.4,30.09,NW,323,0.0,0.0,54,0.00,,---,0.00,VWS V14.01,2013-10-02 02:57:00,
2013-10-01 23:02:00,67.5,50.2,30.09,NW,323,0.0,0.0,54,0.00,,---,0.00,VWS V14.01,2013-10-02 03:02:00,
2013-10-01 23:07:00,67.5,50.2,30.09,NW,323,0.0,0.0,54,0.00,,---,0.00,VWS V14.01,2013-10-02 03:07:00,
2013-10-01 23:12:00,67.3,50.6,30.09,NW,323,0.0,0.0,55,0.00,,---,0.00,VWS V14.01,2013-10-02 03:12:00,
2013-10-01 23:17:00,67.3,50.6,30.09,NW,323,0.0,0.0,55,0.00,,---,0.00,VWS V14.01,2013-10-02 03:17:00,
2013-10-01 23:22:00,67.1,50.4,30.09,NW,323,0.0,0.0,55,0.00,,---,0.00,VWS V14.01,2013-10-02 03:22:00,
2013-10-01 23:27:00,67.1,50.4,30.09,NW,323,0.0,0.0,55,0.00,,---,0.00,VWS V14.01,2013-10-02 03:27:00,
2013-10-01 23:32:00,67.1,50.4,30.09,NW,323,0.0,0.0,55,0.00,,---,0.00,VWS V14.01,2013-10-02 03:32:00,
2013-10-01 23:37:00,66.9,50.2,30.09,NW,323,0.0,0.0,55,0.00,,---,0.00,VWS V14.01,2013-10-02 03:37:00,
2013-10-01 23:42:00,66.9,50.2,30.09,NW,323,0.0,0.0,55,0.00,,---,0.00,VWS V14.01,2013-10-02 03:42:00,
2013-10-01 23:47:00,66.9,50.7,30.09,NW,323,0.0,0.0,56,0.00,,---,0.00,VWS V14.01,2013-10-02 03:47:00,
2013-10-01 23:52:00,66.7,50.6,30.09,NW,323,0.0,0.0,56,0.00,,---,0.00,VWS V14.01,2013-10-02 03:52:00,
2013-10-01 23:57:00,66.7,50.6,30.09,NW,323,0.0,0.0,56,0.00,,---,0.00,VWS V14.01,2013-10-02 03:57:00,